Weather History for KHST - December, 2012

Change the Weather History Date:

Friday, December 28, 2012

  Actual Average (KMIA) Record (KMIA)
Temperature  
Mean Temperature 68 °F 69 °F  
Max Temperature 78 °F 77 °F 83 °F (2007)
Min Temperature 57 °F 61 °F 37 °F (1902)
Degree Days  
Heating Degree Days 0 2  
Month to date heating degree days 28  
Since 1 July heating degree days 31  
Cooling Degree Days 2 5  
Month to date cooling degree days 187  
Year to date cooling degree days 4559  
Growing Degree Days 18 (Base 50)    
Moisture  
Dew Point 65 °F    
Average Humidity 81    
Maximum Humidity 99    
Minimum Humidity 73    
Precipitation  
Precipitation 0.00 in 0.06 in 0.71 in (1955)
Month to date precipitation 1.87  
Year to date precipitation 61.73  
Snow  
Snow 0.00 in - - ()
Month to date snowfall  
Since 1 July snowfall  
Snow Depth -    
Sea Level Pressure  
Sea Level Pressure 30.04 in    
Wind  
Wind Speed 6 mph (East)    
Max Wind Speed 13 mph    
Max Gust Speed -    
Visibility 10 miles    
Events      
T = Trace of Precipitation, MM = Missing Value Source: NWS Daily Summary

Daily Weather History Graph

Daily Weather History Graph

Search for Another Location

Airport or City:

Trip Planner

Search our weather history database for the weather conditions in past years. The results will help you decide how hot, cold, wet, or windy it might be!

Date:

Astronomy

Dec. 28, 2012 Rise Set
Actual Time 7:06 AM EST 5:40 PM EST
Civil Twilight 6:41 AM EST 6:05 PM EST
Nautical Twilight 6:12 AM EST 6:34 PM EST
Astronomical Twilight 5:44 AM EST 7:02 PM EST
Moon 6:09 PM EST (12/28) 7:04 AM EST (12/28)
Length of Visible Light 11h 24m
Length of Day
10h 33m
Full, 100% of the Moon is Illuminated
Dec 28
Full
Jan 4
Last Quarter
Jan 11
New
Jan 18
First Quarter
Jan 26
Full

Hourly Weather History & Observations

Time (EST) Temp. Dew Point Humidity Pressure Visibility Wind Dir Wind Speed Gust Speed Precip Events Conditions
12:55 AM 57.4 °F 50.0 °F 76% 30.05 in 10.0 mi NNE 6.9 mph - N/A   Clear
1:55 AM 57.4 °F 48.9 °F 73% 30.04 in 10.0 mi North 4.6 mph - N/A   Clear
2:55 AM 57.4 °F 48.7 °F 73% 30.04 in 10.0 mi North 3.5 mph - N/A   Clear
3:55 AM 57.9 °F 50.0 °F 75% 30.04 in 10.0 mi North 3.5 mph - N/A   Partly Cloudy
4:28 AM 59.0 °F 51.8 °F 77% 30.04 in 10.0 mi NNE 4.6 mph - N/A   Mostly Cloudy
4:55 AM 57.9 °F 52.3 °F 82% 30.04 in 10.0 mi NNE 4.6 mph - N/A   Mostly Cloudy
4:57 AM 59.0 °F 51.8 °F 77% 30.04 in 10.0 mi NNE 4.6 mph - N/A   Scattered Clouds
5:55 AM 58.1 °F 54.1 °F 87% 30.05 in 10.0 mi Calm Calm - N/A   Clear
6:55 AM 59.7 °F 54.9 °F 84% 30.06 in 10.0 mi North 4.6 mph - N/A   Scattered Clouds
7:55 AM 62.6 °F 57.2 °F 82% 30.06 in 10.0 mi North 4.6 mph - N/A   Partly Cloudy
8:55 AM 68.5 °F 62.4 °F 81% 30.07 in 10.0 mi NE 4.6 mph - N/A   Clear
9:15 AM 71.6 °F 64.4 °F 78% 30.08 in 10.0 mi ENE 3.5 mph - N/A   Mostly Cloudy
9:35 AM 73.4 °F 66.2 °F 78% 30.09 in 10.0 mi East 4.6 mph - N/A   Mostly Cloudy
9:46 AM 73.4 °F 66.2 °F 78% 30.09 in 10.0 mi East 5.8 mph - N/A   Mostly Cloudy
9:49 AM 73.4 °F 66.2 °F 78% 30.09 in 10.0 mi East 6.9 mph - N/A   Mostly Cloudy
9:55 AM 73.8 °F 67.1 °F 80% 30.09 in 10.0 mi East 6.9 mph - N/A   Mostly Cloudy
9:59 AM 75.2 °F 68.0 °F 78% 30.09 in 10.0 mi East 5.8 mph - N/A   Scattered Clouds
10:13 AM 75.2 °F 68.0 °F 78% 30.09 in 10.0 mi East 5.8 mph - N/A   Mostly Cloudy
10:44 AM 77.0 °F 68.0 °F 74% 30.08 in 10.0 mi ESE 8.1 mph - N/A   Scattered Clouds
10:46 AM 77.0 °F 68.0 °F 74% 30.08 in 10.0 mi East 8.1 mph - N/A   Mostly Cloudy
10:55 AM 76.8 °F 68.0 °F 74% 30.08 in 10.0 mi East 9.2 mph - N/A   Mostly Cloudy
11:43 AM 77.0 °F 68.0 °F 74% 30.06 in 10.0 mi East 10.4 mph - N/A   Scattered Clouds
11:55 AM 77.2 °F 69.1 °F 76% 30.06 in 10.0 mi ESE 11.5 mph - N/A   Scattered Clouds
12:24 PM 77.0 °F 69.8 °F 78% 30.05 in 10.0 mi SE 10.4 mph - N/A   Mostly Cloudy
12:38 PM 77.0 °F 69.8 °F 78% 30.04 in 10.0 mi SE 10.4 mph - N/A   Mostly Cloudy
12:41 PM 77.0 °F 69.8 °F 78% 30.04 in 10.0 mi ESE 10.4 mph - N/A   Mostly Cloudy
12:43 PM 77.0 °F 69.8 °F 78% 30.04 in 10.0 mi ESE 10.4 mph - N/A   Scattered Clouds
12:55 PM 77.0 °F 69.1 °F 76% 30.03 in 10.0 mi ESE 12.7 mph - N/A   Scattered Clouds
12:56 PM 77.0 °F 69.8 °F 78% 30.03 in 10.0 mi ESE 11.5 mph - N/A   Mostly Cloudy
12:58 PM 77.0 °F 69.8 °F 78% 30.03 in 10.0 mi ESE 11.5 mph - N/A   Scattered Clouds
1:55 PM 78.3 °F 70.2 °F 76% 30.01 in 10.0 mi ESE 11.5 mph - N/A   Partly Cloudy
2:34 PM 77.0 °F 69.8 °F 78% 30.00 in 10.0 mi SE 11.5 mph - N/A   Mostly Cloudy
2:55 PM 76.3 °F 70.2 °F 81% 29.99 in 10.0 mi SE 11.5 mph - N/A   Mostly Cloudy
2:56 PM 77.0 °F 69.8 °F 78% 29.99 in 10.0 mi SE 10.4 mph - N/A   Mostly Cloudy
3:05 PM 75.2 °F 69.8 °F 83% 29.99 in 10.0 mi SE 10.4 mph - N/A   Mostly Cloudy
3:55 PM 76.1 °F 70.7 °F 83% 29.99 in 10.0 mi SE 6.9 mph - N/A   Partly Cloudy
4:55 PM 76.1 °F 70.7 °F 83% 30.00 in 10.0 mi SE 9.2 mph - N/A   Clear
5:39 PM 75.2 °F 69.8 °F 83% 30.00 in 10.0 mi SE 8.1 mph - N/A   Mostly Cloudy
5:55 PM 74.8 °F 69.8 °F 84% 30.00 in 10.0 mi SE 6.9 mph - N/A   Mostly Cloudy
5:57 PM 75.2 °F 69.8 °F 83% 30.00 in 10.0 mi SE 6.9 mph - N/A   Scattered Clouds
6:55 PM 72.9 °F 69.3 °F 88% 30.02 in 10.0 mi SE 5.8 mph - N/A   Clear
7:55 PM 71.8 °F 69.8 °F 93% 30.03 in 10.0 mi SE 3.5 mph - N/A   Scattered Clouds
8:55 PM 72.3 °F 69.6 °F 91% 30.03 in 10.0 mi SE 5.8 mph - N/A   Clear
9:55 PM 71.6 °F 69.4 °F 93% 30.02 in 10.0 mi SE 4.6 mph - N/A   Clear
10:55 PM 70.5 °F 69.6 °F 97% 30.03 in 10.0 mi SE 3.5 mph - N/A   Clear
11:55 PM 70.3 °F 70.2 °F 99% 30.02 in 10.0 mi SSE 3.5 mph - N/A   Clear